| time (UTC) | temp C | wind direction | speed KPH | gust KPH | rain 1hr cm | rain 24hr cm | rain mn cm | humidity % | barometer mb |
| 20260505125009 | 8 | 0 | 0.0 | 1.6 | 0.00 | 0.00 | 0.00 | 76 | 1008.8 |
| 20260505124534 | 8 | 0 | 0.0 | 1.6 | 0.00 | 0.00 | 0.00 | 76 | 1008.7 |
| 20260505124011 | 8 | 0 | 0.0 | 1.6 | 0.00 | 0.00 | 0.00 | 76 | 1008.7 |
| 20260505123514 | 8 | 0 | 0.0 | 0.0 | 0.00 | 0.00 | 0.00 | 77 | 1008.6 |
| 20260505123031 | 8 | 0 | 0.0 | 1.6 | 0.00 | 0.00 | 0.00 | 77 | 1008.6 |
| 20260505122513 | 8 | 0 | 0.0 | 1.6 | 0.00 | 0.00 | 0.00 | 75 | 1008.3 |
| 20260505122010 | 8 | 212 | 0.0 | 1.6 | 0.00 | 0.00 | 0.00 | 76 | 1008.2 |
| 20260505121535 | 8 | 0 | 0.0 | 0.0 | 0.00 | 0.00 | 0.00 | 76 | 1008.0 |
| 20260505121012 | 8 | 0 | 0.0 | 0.0 | 0.00 | 0.00 | 0.00 | 75 | 1008.0 |
| 20260505120511 | 8 | 0 | 0.0 | 0.0 | 0.00 | 0.00 | 0.00 | 75 | 1008.0 |
| 20260505120042 | 8 | 0 | 0.0 | 1.6 | 0.00 | 0.00 | 0.00 | 75 | 1007.8 |
| 20260505115513 | 8 | 0 | 0.0 | 1.6 | 0.00 | 0.00 | 0.00 | 75 | 1007.8 |
| 20260505115009 | 8 | 0 | 0.0 | 1.6 | 0.00 | 0.00 | 0.00 | 75 | 1007.8 |
| 20260505114527 | 8 | 0 | 0.0 | 1.6 | 0.00 | 0.00 | 0.00 | 75 | 1007.6 |
| 20260505114012 | 8 | 212 | 0.0 | 1.6 | 0.00 | 0.00 | 0.00 | 75 | 1007.6 |
| 20260505113511 | 8 | 0 | 0.0 | 0.0 | 0.00 | 0.00 | 0.00 | 75 | 1007.6 |
| 20260505113028 | 9 | 0 | 0.0 | 0.0 | 0.00 | 0.00 | 0.00 | 75 | 1007.4 |
| 20260505112512 | 9 | 0 | 0.0 | 0.0 | 0.00 | 0.00 | 0.00 | 75 | 1007.4 |
| 20260505112011 | 9 | 0 | 0.0 | 0.0 | 0.00 | 0.00 | 0.00 | 74 | 1007.2 |
| 20260505111528 | 9 | 0 | 0.0 | 0.0 | 0.00 | 0.00 | 0.00 | 74 | 1007.1 |
| 20260505111012 | 9 | 0 | 0.0 | 0.0 | 0.00 | 0.00 | 0.00 | 74 | 1007.0 |
| 20260505110510 | 9 | 0 | 0.0 | 0.0 | 0.00 | 0.00 | 0.00 | 73 | 1006.9 |
| 20260505102011 | 10 | 0 | 0.0 | 0.0 | 0.00 | 0.00 | 0.00 | 69 | 1006.5 |
| 20260505101541 | 10 | 0 | 0.0 | 0.0 | 0.00 | 0.00 | 0.00 | 68 | 1006.4 |
| 20260505101017 | 10 | 0 | 0.0 | 0.0 | 0.00 | 0.00 | 0.00 | 68 | 1006.4 |
| 20260505100512 | 11 | 0 | 0.0 | 0.0 | 0.00 | 0.00 | 0.00 | 68 | 1006.3 |
| 20260505100029 | 11 | 0 | 0.0 | 1.6 | 0.00 | 0.00 | 0.00 | 67 | 1006.1 |
| 20260505095514 | 11 | 0 | 0.0 | 1.6 | 0.00 | 0.00 | 0.00 | 67 | 1006.1 |
| 20260505095011 | 11 | 0 | 0.0 | 0.0 | 0.00 | 0.00 | 0.00 | 66 | 1006.0 |
| 20260505094535 | 11 | 0 | 0.0 | 0.0 | 0.00 | 0.00 | 0.00 | 66 | 1005.9 |
| 20260505094010 | 11 | 0 | 0.0 | 0.0 | 0.00 | 0.00 | 0.00 | 65 | 1005.8 |
| 20260505093512 | 11 | 0 | 0.0 | 0.0 | 0.00 | 0.00 | 0.00 | 64 | 1005.6 |
| 20260505093031 | 12 | 0 | 0.0 | 1.6 | 0.00 | 0.00 | 0.00 | 64 | 1005.7 |
| 20260505092513 | 12 | 0 | 0.0 | 1.6 | 0.00 | 0.00 | 0.00 | 63 | 1005.5 |
| 20260505092012 | 12 | 297 | 0.0 | 1.6 | 0.00 | 0.00 | 0.00 | 62 | 1005.4 |
| 20260505091534 | 12 | 0 | 0.0 | 0.0 | 0.00 | 0.00 | 0.00 | 60 | 1005.4 |
| 20260505091010 | 12 | 0 | 0.0 | 1.6 | 0.00 | 0.00 | 0.00 | 61 | 1005.4 |
| 20260505090511 | 12 | 0 | 0.0 | 1.6 | 0.00 | 0.00 | 0.00 | 60 | 1005.5 |
| 20260505090027 | 12 | 0 | 0.0 | 1.6 | 0.00 | 0.00 | 0.00 | 60 | 1005.5 |
| 20260505085509 | 13 | 0 | 0.0 | 1.6 | 0.00 | 0.00 | 0.00 | 59 | 1005.3 |
| 20260505085011 | 13 | 202 | 0.0 | 8.0 | 0.00 | 0.00 | 0.00 | 58 | 1005.2 |
| 20260505084529 | 13 | 191 | 0.0 | 11.3 | 0.00 | 0.00 | 0.00 | 56 | 1005.1 |
| 20260505084010 | 14 | 182 | 3.2 | 11.3 | 0.00 | 0.00 | 0.00 | 56 | 1005.2 |
| 20260505083512 | 13 | 325 | 1.6 | 9.7 | 0.00 | 0.00 | 0.00 | 58 | 1004.8 |
| 20260505083030 | 13 | 291 | 0.0 | 9.7 | 0.00 | 0.00 | 0.00 | 59 | 1004.8 |
| 20260505082514 | 12 | 0 | 0.0 | 1.6 | 0.00 | 0.00 | 0.00 | 60 | 1004.7 |
| 20260505082014 | 12 | 0 | 0.0 | 1.6 | 0.00 | 0.00 | 0.00 | 59 | 1004.7 |
| 20260505081530 | 13 | 300 | 0.0 | 1.6 | 0.00 | 0.00 | 0.00 | 59 | 1004.6 |
| 20260505081016 | 13 | 0 | 0.0 | 1.6 | 0.00 | 0.00 | 0.00 | 58 | 1004.6 |
| 20260505080510 | 13 | 0 | 0.0 | 4.8 | 0.00 | 0.00 | 0.00 | 58 | 1004.7 |
| 20260505080027 | 13 | 0 | 1.6 | 4.8 | 0.00 | 0.00 | 0.00 | 57 | 1004.6 |
| 20260505075514 | 13 | 0 | 0.0 | 3.2 | 0.00 | 0.00 | 0.00 | 56 | 1004.6 |
| 20260505075016 | 13 | 0 | 0.0 | 4.8 | 0.00 | 0.00 | 0.00 | 56 | 1004.4 |
| 20260505074529 | 13 | 267 | 1.6 | 4.8 | 0.00 | 0.00 | 0.00 | 55 | 1004.5 |
| 20260505074008 | 14 | 0 | 0.0 | 1.6 | 0.00 | 0.00 | 0.00 | 55 | 1004.6 |
| 20260505073511 | 14 | 236 | 0.0 | 4.8 | 0.00 | 0.00 | 0.00 | 53 | 1004.3 |
| 20260505073030 | 14 | 181 | 1.6 | 4.8 | 0.00 | 0.00 | 0.00 | 54 | 1004.5 |
| 20260505072510 | 15 | 267 | 1.6 | 4.8 | 0.00 | 0.00 | 0.00 | 53 | 1004.2 |
| 20260505072009 | 15 | 115 | 0.0 | 4.8 | 0.00 | 0.00 | 0.00 | 53 | 1004.3 |
| 20260505071532 | 15 | 104 | 0.0 | 4.8 | 0.00 | 0.00 | 0.00 | 52 | 1004.3 |
| 20260505071010 | 15 | 237 | 0.0 | 3.2 | 0.00 | 0.00 | 0.00 | 51 | 1004.2 |
| 20260505070513 | 15 | 0 | 0.0 | 3.2 | 0.00 | 0.00 | 0.00 | 50 | 1004.3 |
| 20260505070028 | 16 | 282 | 1.6 | 3.2 | 0.00 | 0.00 | 0.00 | 49 | 1004.0 |
| 20260505065507 | 16 | 0 | 0.0 | 6.4 | 0.00 | 0.00 | 0.00 | 48 | 1004.2 |
| 20260505065008 | 16 | 187 | 0.0 | 6.4 | 0.00 | 0.00 | 0.00 | 47 | 1004.1 |
| 20260505064526 | 16 | 187 | 1.6 | 6.4 | 0.00 | 0.00 | 0.00 | 47 | 1004.0 |
| 20260505064010 | 16 | 72 | 1.6 | 6.4 | 0.00 | 0.00 | 0.00 | 49 | 1004.1 |
| 20260505063508 | 15 | 265 | 0.0 | 6.4 | 0.00 | 0.00 | 0.00 | 49 | 1003.7 |
| 20260505063026 | 16 | 0 | 0.0 | 4.8 | 0.00 | 0.00 | 0.00 | 49 | 1004.0 |
| 20260505062510 | 16 | 354 | 1.6 | 4.8 | 0.00 | 0.00 | 0.00 | 49 | 1004.0 |
| 20260505062012 | 16 | 78 | 1.6 | 4.8 | 0.00 | 0.00 | 0.00 | 49 | 1003.9 |
| 20260505061527 | 16 | 297 | 0.0 | 6.4 | 0.00 | 0.00 | 0.00 | 48 | 1004.0 |
| 20260505061006 | 16 | 0 | 1.6 | 6.4 | 0.00 | 0.00 | 0.00 | 49 | 1003.9 |
| 20260505060511 | 16 | 340 | 0.0 | 4.8 | 0.00 | 0.00 | 0.00 | 48 | 1003.9 |
| 20260505060042 | 16 | 0 | 0.0 | 4.8 | 0.00 | 0.00 | 0.00 | 47 | 1004.0 |
| 20260505055515 | 16 | 0 | 0.0 | 3.2 | 0.00 | 0.00 | 0.00 | 46 | 1003.9 |
| 20260505055014 | 17 | 87 | 0.0 | 3.2 | 0.00 | 0.00 | 0.00 | 46 | 1004.0 |
| 20260505054529 | 17 | 60 | 0.0 | 1.6 | 0.00 | 0.00 | 0.00 | 45 | 1003.9 |
| 20260505054013 | 17 | 0 | 0.0 | 1.6 | 0.00 | 0.00 | 0.00 | 43 | 1003.8 |
| 20260505053513 | 17 | 0 | 0.0 | 1.6 | 0.00 | 0.00 | 0.00 | 43 | 1003.9 |
| 20260505053026 | 17 | 193 | 0.0 | 3.2 | 0.00 | 0.00 | 0.00 | 42 | 1003.9 |
| 20260505052511 | 17 | 0 | 0.0 | 3.2 | 0.00 | 0.00 | 0.00 | 43 | 1003.9 |
| 20260505052009 | 17 | 0 | 0.0 | 3.2 | 0.00 | 0.00 | 0.00 | 43 | 1003.8 |
| 20260505051529 | 17 | 0 | 0.0 | 1.6 | 0.00 | 0.00 | 0.00 | 43 | 1003.8 |
| 20260505051010 | 18 | 0 | 0.0 | 1.6 | 0.00 | 0.00 | 0.00 | 42 | 1003.7 |
| 20260505050509 | 18 | 72 | 0.0 | 1.6 | 0.00 | 0.00 | 0.00 | 41 | 1003.6 |
| 20260505041528 | 19 | 0 | 0.0 | 1.6 | 0.00 | 0.00 | 0.00 | 39 | 1003.7 |
| 20260505041010 | 19 | 0 | 0.0 | 1.6 | 0.00 | 0.00 | 0.00 | 38 | 1003.7 |
| 20260505040511 | 20 | 0 | 0.0 | 0.0 | 0.00 | 0.00 | 0.00 | 38 | 1003.6 |
| 20260505040028 | 20 | 0 | 0.0 | 0.0 | 0.00 | 0.00 | 0.00 | 38 | 1003.6 |
| 20260505035510 | 20 | 0 | 0.0 | 1.6 | 0.00 | 0.00 | 0.00 | 38 | 1003.5 |
| 20260505035010 | 20 | 0 | 0.0 | 1.6 | 0.00 | 0.00 | 0.00 | 38 | 1003.5 |
| 20260505034527 | 20 | 0 | 0.0 | 1.6 | 0.00 | 0.00 | 0.00 | 37 | 1003.5 |
| 20260505034010 | 21 | 13 | 0.0 | 1.6 | 0.00 | 0.00 | 0.00 | 37 | 1003.5 |
| 20260505033510 | 21 | 0 | 0.0 | 1.6 | 0.00 | 0.00 | 0.00 | 36 | 1003.4 |
| 20260505033029 | 21 | 0 | 0.0 | 1.6 | 0.00 | 0.00 | 0.00 | 36 | 1003.4 |
| 20260505032508 | 21 | 0 | 0.0 | 1.6 | 0.00 | 0.00 | 0.00 | 35 | 1003.4 |
| 20260505032012 | 21 | 0 | 0.0 | 1.6 | 0.00 | 0.00 | 0.00 | 35 | 1003.4 |
| 20260505031529 | 22 | 11 | 0.0 | 3.2 | 0.00 | 0.00 | 0.00 | 35 | 1003.4 |
| 20260505031008 | 22 | 6 | 0.0 | 3.2 | 0.00 | 0.00 | 0.00 | 34 | 1003.4 |
| 20260505030512 | 22 | 6 | 0.0 | 3.2 | 0.00 | 0.00 | 0.00 | 33 | 1003.3 |
| 20260505030028 | 22 | 18 | 0.0 | 4.8 | 0.00 | 0.00 | 0.00 | 33 | 1003.4 |
| 20260505025515 | 22 | 53 | 0.0 | 4.8 | 0.00 | 0.00 | 0.00 | 32 | 1003.5 |
| 20260505025011 | 23 | 331 | 0.0 | 4.8 | 0.00 | 0.00 | 0.00 | 32 | 1003.4 |
| 20260505024527 | 23 | 349 | 1.6 | 4.8 | 0.00 | 0.00 | 0.00 | 31 | 1003.5 |
| 20260505024011 | 23 | 352 | 0.0 | 6.4 | 0.00 | 0.00 | 0.00 | 31 | 1003.3 |
| 20260505023508 | 23 | 5 | 1.6 | 9.7 | 0.00 | 0.00 | 0.00 | 31 | 1003.3 |
| 20260505023027 | 24 | 3 | 1.6 | 9.7 | 0.00 | 0.00 | 0.00 | 31 | 1003.2 |
| 20260505022508 | 24 | 346 | 1.6 | 6.4 | 0.00 | 0.00 | 0.00 | 31 | 1003.2 |
| 20260505022013 | 24 | 89 | 1.6 | 12.9 | 0.00 | 0.00 | 0.00 | 31 | 1003.2 |
| 20260505021530 | 24 | 13 | 3.2 | 12.9 | 0.00 | 0.00 | 0.00 | 30 | 1003.2 |
| 20260505021007 | 24 | 24 | 3.2 | 11.3 | 0.00 | 0.00 | 0.00 | 30 | 1003.2 |
| 20260505020507 | 25 | 104 | 1.6 | 17.7 | 0.00 | 0.00 | 0.00 | 31 | 1003.2 |
| 20260505020027 | 25 | 352 | 3.2 | 17.7 | 0.00 | 0.00 | 0.00 | 30 | 1003.2 |
| 20260505015508 | 25 | 26 | 3.2 | 16.1 | 0.00 | 0.00 | 0.00 | 30 | 1003.2 |
| 20260505015011 | 25 | 7 | 3.2 | 16.1 | 0.00 | 0.00 | 0.00 | 30 | 1003.2 |
| 20260505014558 | 25 | 11 | 3.2 | 14.5 | 0.00 | 0.00 | 0.00 | 30 | 1003.2 |
| 20260505014015 | 25 | 21 | 1.6 | 6.4 | 0.00 | 0.00 | 0.00 | 29 | 1003.2 |
| 20260505013510 | 25 | 10 | 1.6 | 8.0 | 0.00 | 0.00 | 0.00 | 28 | 1003.2 |
| 20260505013026 | 26 | 0 | 1.6 | 12.9 | 0.00 | 0.00 | 0.00 | 27 | 1003.3 |
| 20260505012508 | 26 | 68 | 3.2 | 20.9 | 0.00 | 0.00 | 0.00 | 26 | 1003.3 |
| 20260505012010 | 26 | 49 | 4.8 | 20.9 | 0.00 | 0.00 | 0.00 | 25 | 1003.3 |
| 20260505011526 | 26 | 89 | 3.2 | 6.4 | 0.00 | 0.00 | 0.00 | 26 | 1003.3 |
| 20260505011008 | 26 | 12 | 1.6 | 9.7 | 0.00 | 0.00 | 0.00 | 25 | 1003.5 |
| 20260505010512 | 26 | 14 | 3.2 | 11.3 | 0.00 | 0.00 | 0.00 | 24 | 1003.5 |
| 20260505010026 | 26 | 6 | 3.2 | 11.3 | 0.00 | 0.00 | 0.00 | 24 | 1003.5 |
| 20260505005509 | 26 | 346 | 3.2 | 12.9 | 0.00 | 0.00 | 0.00 | 25 | 1003.5 |
| 20260505005008 | 26 | 14 | 3.2 | 12.9 | 0.00 | 0.00 | 0.00 | 24 | 1003.6 |
| 20260505004530 | 26 | 35 | 1.6 | 16.1 | 0.00 | 0.00 | 0.00 | 24 | 1003.6 |
| 20260505004008 | 26 | 20 | 4.8 | 20.9 | 0.00 | 0.00 | 0.00 | 23 | 1003.7 |
| 20260505003516 | 26 | 33 | 6.4 | 20.9 | 0.00 | 0.00 | 0.00 | 22 | 1003.8 |
| 20260505003033 | 26 | 80 | 4.8 | 20.9 | 0.00 | 0.00 | 0.00 | 23 | 1003.8 |
| 20260505002512 | 26 | 9 | 6.4 | 16.1 | 0.00 | 0.00 | 0.00 | 23 | 1003.9 |
| 20260505002012 | 27 | 52 | 4.8 | 16.1 | 0.00 | 0.00 | 0.00 | 24 | 1003.8 |
| 20260505001527 | 27 | 11 | 3.2 | 16.1 | 0.00 | 0.00 | 0.00 | 25 | 1003.8 |
| 20260505001008 | 27 | 30 | 3.2 | 9.7 | 0.00 | 0.00 | 0.00 | 25 | 1003.8 |
| 20260505000508 | 27 | 347 | 3.2 | 8.0 | 0.00 | 0.00 | 0.00 | 23 | 1003.8 |
| 20260505000031 | 28 | 298 | 3.2 | 12.9 | 0.00 | 0.00 | 0.00 | 23 | 1003.9 |
| 20260504235508 | 27 | 352 | 3.2 | 12.9 | 0.00 | 0.00 | 0.00 | 24 | 1003.9 |
| 20260504235011 | 27 | 58 | 3.2 | 14.5 | 0.00 | 0.00 | 0.00 | 24 | 1004.0 |
| 20260504234526 | 27 | 16 | 4.8 | 14.5 | 0.00 | 0.00 | 0.00 | 26 | 1004.0 |
| 20260504234009 | 27 | 20 | 3.2 | 11.3 | 0.00 | 0.00 | 0.00 | 27 | 1004.1 |
| 20260504233509 | 28 | 21 | 4.8 | 14.5 | 0.00 | 0.00 | 0.00 | 27 | 1004.1 |
| 20260504233028 | 27 | 0 | 0.0 | 14.5 | 0.00 | 0.00 | 0.00 | 29 | 1004.1 |
| 20260504232511 | 27 | 49 | 4.8 | 11.3 | 0.00 | 0.00 | 0.00 | 28 | 1004.3 |
| 20260504232010 | 27 | 340 | 3.2 | 9.7 | 0.00 | 0.00 | 0.00 | 28 | 1004.2 |
| 20260504231527 | 27 | 84 | 3.2 | 9.7 | 0.00 | 0.00 | 0.00 | 28 | 1004.2 |
| 20260504231009 | 27 | 334 | 1.6 | 16.1 | 0.00 | 0.00 | 0.00 | 29 | 1004.3 |
| 20260504230508 | 27 | 35 | 4.8 | 16.1 | 0.00 | 0.00 | 0.00 | 29 | 1004.4 |
| 20260504230029 | 27 | 334 | 6.4 | 14.5 | 0.00 | 0.00 | 0.00 | 28 | 1004.4 |
| 20260504225509 | 28 | 313 | 1.6 | 14.5 | 0.00 | 0.00 | 0.00 | 28 | 1004.5 |
| 20260504225012 | 28 | 33 | 1.6 | 9.7 | 0.00 | 0.00 | 0.00 | 29 | 1004.6 |
| 20260504224529 | 27 | 347 | 1.6 | 16.1 | 0.00 | 0.00 | 0.00 | 30 | 1004.6 |
| 20260504224007 | 27 | 27 | 3.2 | 16.1 | 0.00 | 0.00 | 0.00 | 30 | 1004.6 |
| 20260504223509 | 27 | 11 | 1.6 | 8.0 | 0.00 | 0.00 | 0.00 | 30 | 1004.7 |
| 20260504223026 | 27 | 353 | 1.6 | 12.9 | 0.00 | 0.00 | 0.00 | 29 | 1004.7 |
| 20260504222509 | 27 | 0 | 1.6 | 12.9 | 0.00 | 0.00 | 0.00 | 30 | 1005.0 |
| 20260504222014 | 27 | 313 | 3.2 | 9.7 | 0.00 | 0.00 | 0.00 | 29 | 1004.9 |
| 20260504221528 | 27 | 328 | 1.6 | 8.0 | 0.00 | 0.00 | 0.00 | 30 | 1005.0 |
| 20260504221010 | 27 | 353 | 1.6 | 14.5 | 0.00 | 0.00 | 0.00 | 32 | 1005.2 |
| 20260504220511 | 27 | 1 | 6.4 | 14.5 | 0.00 | 0.00 | 0.00 | 30 | 1005.2 |
| 20260504220039 | 27 | 350 | 4.8 | 14.5 | 0.00 | 0.00 | 0.00 | 29 | 1005.3 |
| 20260504215508 | 27 | 352 | 1.6 | 11.3 | 0.00 | 0.00 | 0.00 | 30 | 1005.3 |
| 20260504215010 | 27 | 342 | 3.2 | 11.3 | 0.00 | 0.00 | 0.00 | 30 | 1005.4 |
| 20260504214528 | 27 | 342 | 3.2 | 11.3 | 0.00 | 0.00 | 0.00 | 31 | 1005.4 |
| 20260504214017 | 27 | 337 | 1.6 | 11.3 | 0.00 | 0.00 | 0.00 | 33 | 1005.6 |
| 20260504213511 | 27 | 328 | 1.6 | 8.0 | 0.00 | 0.00 | 0.00 | 31 | 1005.6 |
| 20260504213027 | 27 | 340 | 3.2 | 9.7 | 0.00 | 0.00 | 0.00 | 31 | 1005.8 |
| 20260504212511 | 26 | 34 | 1.6 | 9.7 | 0.00 | 0.00 | 0.00 | 32 | 1005.8 |
| 20260504212010 | 26 | 335 | 3.2 | 11.3 | 0.00 | 0.00 | 0.00 | 33 | 1005.8 |
| 20260504211533 | 27 | 330 | 4.8 | 11.3 | 0.00 | 0.00 | 0.00 | 33 | 1005.9 |
| 20260504211008 | 27 | 349 | 1.6 | 9.7 | 0.00 | 0.00 | 0.00 | 33 | 1006.1 |
| 20260504210508 | 27 | 336 | 3.2 | 9.7 | 0.00 | 0.00 | 0.00 | 34 | 1006.2 |
| 20260504210028 | 27 | 359 | 3.2 | 9.7 | 0.00 | 0.00 | 0.00 | 32 | 1006.3 |
| 20260504205514 | 26 | 302 | 0.0 | 6.4 | 0.00 | 0.00 | 0.00 | 34 | 1006.3 |
| 20260504205010 | 26 | 248 | 1.6 | 11.3 | 0.00 | 0.00 | 0.00 | 35 | 1006.5 |
| 20260504204530 | 26 | 355 | 3.2 | 11.3 | 0.00 | 0.00 | 0.00 | 34 | 1006.6 |
| 20260504204010 | 26 | 347 | 3.2 | 9.7 | 0.00 | 0.00 | 0.00 | 35 | 1006.6 |
| 20260504203513 | 26 | 345 | 3.2 | 11.3 | 0.00 | 0.00 | 0.00 | 35 | 1006.6 |
| 20260504203029 | 26 | 342 | 3.2 | 11.3 | 0.00 | 0.00 | 0.00 | 34 | 1006.6 |
| 20260504202509 | 26 | 347 | 3.2 | 9.7 | 0.00 | 0.00 | 0.00 | 34 | 1006.6 |
| 20260504202008 | 26 | 84 | 1.6 | 9.7 | 0.00 | 0.00 | 0.00 | 33 | 1006.7 |
| 20260504201528 | 26 | 329 | 1.6 | 8.0 | 0.00 | 0.00 | 0.00 | 34 | 1006.7 |
| 20260504201007 | 25 | 55 | 1.6 | 8.0 | 0.00 | 0.00 | 0.00 | 36 | 1006.8 |
| 20260504200508 | 25 | 345 | 3.2 | 11.3 | 0.00 | 0.00 | 0.00 | 35 | 1006.9 |
| 20260504200028 | 25 | 340 | 3.2 | 11.3 | 0.00 | 0.00 | 0.00 | 34 | 1006.8 |
| 20260504195508 | 25 | 12 | 3.2 | 9.7 | 0.00 | 0.00 | 0.00 | 33 | 1006.9 |
| 20260504195008 | 25 | 49 | 3.2 | 12.9 | 0.00 | 0.00 | 0.00 | 36 | 1007.0 |
| 20260504194528 | 25 | 10 | 4.8 | 12.9 | 0.00 | 0.00 | 0.00 | 34 | 1006.9 |
| 20260504194009 | 25 | 96 | 3.2 | 9.7 | 0.00 | 0.00 | 0.00 | 33 | 1007.1 |
| 20260504193510 | 25 | 51 | 4.8 | 9.7 | 0.00 | 0.00 | 0.00 | 34 | 1007.2 |
| 20260504193028 | 25 | 0 | 1.6 | 9.7 | 0.00 | 0.00 | 0.00 | 35 | 1007.2 |
| 20260504192509 | 25 | 355 | 1.6 | 9.7 | 0.00 | 0.00 | 0.00 | 36 | 1007.4 |
| 20260504192011 | 25 | 20 | 3.2 | 9.7 | 0.00 | 0.00 | 0.00 | 34 | 1007.3 |
| 20260504191526 | 25 | 25 | 1.6 | 8.0 | 0.00 | 0.00 | 0.00 | 38 | 1007.5 |
| 20260504191009 | 24 | 68 | 1.6 | 9.7 | 0.00 | 0.00 | 0.00 | 36 | 1007.4 |
| 20260504190509 | 24 | 142 | 3.2 | 9.7 | 0.00 | 0.00 | 0.00 | 36 | 1007.5 |
| 20260504190028 | 24 | 81 | 1.6 | 8.0 | 0.00 | 0.00 | 0.00 | 37 | 1007.6 |
| 20260504185512 | 24 | 312 | 1.6 | 8.0 | 0.00 | 0.00 | 0.00 | 39 | 1007.6 |
| 20260504185015 | 23 | 9 | 1.6 | 8.0 | 0.00 | 0.00 | 0.00 | 41 | 1007.7 |
| 20260504184528 | 23 | 59 | 3.2 | 9.7 | 0.00 | 0.00 | 0.00 | 40 | 1007.7 |
| 20260504184012 | 23 | 32 | 3.2 | 9.7 | 0.00 | 0.00 | 0.00 | 41 | 1007.8 |
| 20260504183512 | 22 | 34 | 3.2 | 12.9 | 0.00 | 0.00 | 0.00 | 43 | 1007.9 |
| 20260504183026 | 22 | 75 | 3.2 | 12.9 | 0.00 | 0.00 | 0.00 | 41 | 1007.9 |
| 20260504182511 | 22 | 11 | 1.6 | 8.0 | 0.00 | 0.00 | 0.00 | 39 | 1008.0 |
| 20260504182012 | 22 | 0 | 0.0 | 9.7 | 0.00 | 0.00 | 0.00 | 42 | 1008.1 |
| 20260504181532 | 22 | 108 | 1.6 | 9.7 | 0.00 | 0.00 | 0.00 | 41 | 1008.2 |
| 20260504181011 | 22 | 29 | 0.0 | 8.0 | 0.00 | 0.00 | 0.00 | 43 | 1008.2 |
| 20260504180511 | 22 | 3 | 1.6 | 8.0 | 0.00 | 0.00 | 0.00 | 44 | 1008.2 |
| 20260504180030 | 22 | 39 | 0.0 | 9.7 | 0.00 | 0.00 | 0.00 | 42 | 1008.3 |
| 20260504175509 | 22 | 317 | 1.6 | 9.7 | 0.00 | 0.00 | 0.00 | 44 | 1008.3 |
| 20260504175009 | 22 | 55 | 3.2 | 9.7 | 0.00 | 0.00 | 0.00 | 41 | 1008.4 |
| 20260504174528 | 22 | 0 | 0.0 | 4.8 | 0.00 | 0.00 | 0.00 | 42 | 1008.5 |
| 20260504174010 | 22 | 338 | 1.6 | 4.8 | 0.00 | 0.00 | 0.00 | 43 | 1008.4 |
| 20260504173509 | 22 | 11 | 1.6 | 4.8 | 0.00 | 0.00 | 0.00 | 43 | 1008.6 |
| 20260504173032 | 22 | 16 | 0.0 | 4.8 | 0.00 | 0.00 | 0.00 | 43 | 1008.6 |
| 20260504172509 | 21 | 181 | 1.6 | 3.2 | 0.00 | 0.00 | 0.00 | 41 | 1008.5 |
| 20260504172011 | 21 | 222 | 0.0 | 6.4 | 0.00 | 0.00 | 0.00 | 44 | 1008.6 |
| 20260504171532 | 21 | 36 | 1.6 | 6.4 | 0.00 | 0.00 | 0.00 | 44 | 1008.7 |
| 20260504171014 | 21 | 343 | 0.0 | 6.4 | 0.00 | 0.00 | 0.00 | 45 | 1008.7 |
| 20260504170508 | 21 | 64 | 0.0 | 6.4 | 0.00 | 0.00 | 0.00 | 45 | 1008.7 |
| 20260504151012 | 15 | 0 | 0.0 | 1.6 | 0.00 | 0.00 | 0.00 | 58 | 1008.8 |
| 20260504150512 | 14 | 0 | 0.0 | 1.6 | 0.00 | 0.00 | 0.00 | 61 | 1008.9 |
| 20260504141009 | 9 | 0 | 0.0 | 0.0 | 0.00 | 0.00 | 0.00 | 77 | 1008.8 |
| 20260504140508 | 9 | 0 | 0.0 | 0.0 | 0.00 | 0.00 | 0.00 | 79 | 1008.8 |